Погода в Строителе

Россия / Московская область     55°35′37″N   35°53′05″E
темп.,
°C
ветер,
м/с
пор.,
м/с
влажн.,
%
обл.,
%
осадки,
мм/ч
давл.,
гПа
погр.,
м
8 августа, пн
пн800:00+15ссз359899 0.1 1021257
03:00+14с3698100 0.1 1021271
06:00+14с359797 0.0 1021200
09:00+16ссв338870 0.0 1022414
12:00+20ссв226995 0.0 1022960
15:00+22св226072 0.1 10221201
18:00+20св3469100 0.0 1021500
21:00+17ссв2678100 0.0 1022233
9 августа, вт
вт900:00+14с2594100 0.0 1022103
03:00+12с3697100 0.0 1022141
06:00+13с3892100 0.0 1022288
09:00+16с4672100 0.0 1022492
12:00+18ссв466398 0.0 1022873
15:00+18св4766100 0.0 1022619
18:00+18св2765100 0.0 1022666
21:00+16с227687 0.0 102230
10 августа, ср
ср1000:00+13с358956 0.0 102280
03:00+12с378564 0.0 1022137
06:00+11с368987 0.0 1023128
09:00+18ссв466245 0.0 1023597
12:00+22ссв464333 0.0 10222083
15:00+23ссв443786 0.0 10212452
18:00+20св365645 0.0 1023313
21:00+15ссв357441 0.0 102374
11 августа, чт
чт1100:00+12ссв22800 0.0 102422
03:00+11ссв22860 0.0 102511
06:00+11ссв11810 0.0 102612
09:00+18св22530 0.0 1026422
12:00+22св22380 0.0 10251623
15:00+24ссв22340 0.0 10251854
18:00+23с12410 0.0 1024891
21:00+15с22639 0.0 102511
12 августа, пт
пт1200:00+13юв0070100 0.0 102510
03:00+12юз00745 0.0 102510
06:00+12зсз11726 0.0 102610
09:00+20сз014912 0.0 1026286
12:00+25вюв003745 0.0 10251313
15:00+26юз013247 0.0 10241605
18:00+25ю11400 0.0 1023910
21:00+17ююз22600 0.0 102411